ARG1010 SAEZ-SABE

Flight info

Callsign ARG1010
Flight time 0h 21m
Altitude 10000
Route TRINI/N0280F090 DCT ILM
Aircraft B738/M-MSDFGHILRVWS/LB1

Departure

Time 2026-05-08 04:53
Airport Ezeiza International Airport - Ministro Pistarini (SAEZ)

Arrival

Time 2026-05-08 05:15
Airport Aeroparque Jorge Newbery (SABE)
Time Latitude Longitude Altitude Speed Heading
2026-05-08 04:27 -34.79859 -58.52789 71 ft 0 kts 181°
2026-05-08 04:38 -34.79858 -58.52789 74 ft 2 kts 180°
2026-05-08 04:39 -34.79838 -58.52788 67 ft 3 kts 190°
2026-05-08 04:39 -34.79820 -58.52781 64 ft 3 kts 216°
2026-05-08 04:39 -34.79810 -58.52769 66 ft 3 kts 276°
2026-05-08 04:39 -34.79813 -58.52760 65 ft 1 kts 315°
2026-05-08 04:40 -34.79814 -58.52758 64 ft 0 kts 315°
2026-05-08 04:42 -34.79808 -58.52766 65 ft 7 kts 315°
2026-05-08 04:42 -34.79757 -58.52828 67 ft 11 kts 314°
2026-05-08 04:42 -34.79738 -58.52907 67 ft 11 kts 233°
2026-05-08 04:43 -34.79796 -58.52980 68 ft 16 kts 226°
2026-05-08 04:43 -34.79891 -58.53098 67 ft 22 kts 225°
2026-05-08 04:43 -34.80000 -58.53231 71 ft 22 kts 225°
2026-05-08 04:43 -34.80104 -58.53360 72 ft 21 kts 225°
2026-05-08 04:44 -34.80207 -58.53484 71 ft 21 kts 225°
2026-05-08 04:44 -34.80306 -58.53606 72 ft 20 kts 226°
2026-05-08 04:44 -34.80413 -58.53708 72 ft 19 kts 208°
2026-05-08 04:44 -34.80541 -58.53739 62 ft 19 kts 175°
2026-05-08 04:45 -34.80666 -58.53705 72 ft 18 kts 164°
2026-05-08 04:45 -34.80784 -58.53663 75 ft 17 kts 164°
2026-05-08 04:45 -34.80898 -58.53624 71 ft 17 kts 164°
2026-05-08 04:45 -34.81008 -58.53585 72 ft 16 kts 164°
2026-05-08 04:46 -34.81115 -58.53552 75 ft 16 kts 182°
2026-05-08 04:46 -34.81215 -58.53590 67 ft 15 kts 184°
2026-05-08 04:46 -34.81317 -58.53586 72 ft 14 kts 179°
2026-05-08 04:46 -34.81411 -58.53603 69 ft 14 kts 197°
2026-05-08 04:47 -34.81498 -58.53644 74 ft 13 kts 207°
2026-05-08 04:47 -34.81573 -58.53701 74 ft 13 kts 222°
2026-05-08 04:47 -34.81641 -58.53767 71 ft 12 kts 197°
2026-05-08 04:47 -34.81720 -58.53736 70 ft 12 kts 155°
2026-05-08 04:48 -34.81795 -58.53693 66 ft 12 kts 154°
2026-05-08 04:48 -34.81867 -58.53648 74 ft 11 kts 147°
2026-05-08 04:48 -34.81917 -58.53576 72 ft 11 kts 103°
2026-05-08 04:48 -34.81933 -58.53485 74 ft 11 kts 102°
2026-05-08 04:49 -34.81952 -58.53393 70 ft 15 kts 105°
2026-05-08 04:49 -34.81992 -58.53196 72 ft 27 kts 104°
2026-05-08 04:49 -34.82025 -58.53026 74 ft 20 kts 103°
2026-05-08 04:49 -34.82058 -58.52862 73 ft 20 kts 104°
2026-05-08 04:50 -34.82088 -58.52703 72 ft 19 kts 103°
2026-05-08 04:50 -34.82120 -58.52550 75 ft 18 kts 104°
2026-05-08 04:50 -34.82150 -58.52402 72 ft 18 kts 104°
2026-05-08 04:50 -34.82178 -58.52259 74 ft 17 kts 104°
2026-05-08 04:51 -34.82206 -58.52121 74 ft 16 kts 104°
2026-05-08 04:51 -34.82233 -58.51988 71 ft 16 kts 103°
2026-05-08 04:51 -34.82259 -58.51861 71 ft 15 kts 103°
2026-05-08 04:51 -34.82320 -58.51786 70 ft 15 kts 192°
2026-05-08 04:52 -34.82417 -58.51814 74 ft 14 kts 191°
2026-05-08 04:52 -34.82507 -58.51850 83 ft 13 kts 218°
2026-05-08 04:52 -34.82510 -58.51969 83 ft 22 kts 282°
2026-05-08 04:52 -34.82439 -58.52374 69 ft 83 kts 282°
2026-05-08 04:53 -34.82269 -58.53296 90 ft 137 kts 282°
2026-05-08 04:53 -34.82020 -58.54512 470 ft 153 kts 281°
2026-05-08 04:53 -34.81699 -58.55755 1210 ft 156 kts 288°
2026-05-08 04:53 -34.81061 -58.56929 1738 ft 186 kts 303°
2026-05-08 04:54 -34.79978 -58.58061 1917 ft 221 kts 314°
2026-05-08 04:54 -34.78680 -58.59236 2182 ft 245 kts 315°
2026-05-08 04:54 -34.77248 -58.60492 2658 ft 261 kts 316°
2026-05-08 04:54 -34.75761 -58.61790 3014 ft 265 kts 316°
2026-05-08 04:55 -34.74726 -58.62694 3021 ft 265 kts 316°
2026-05-08 04:55 -34.73235 -58.64001 3037 ft 263 kts 316°
2026-05-08 04:55 -34.71776 -58.65290 3045 ft 263 kts 316°
2026-05-08 04:55 -34.70278 -58.66620 3036 ft 263 kts 316°
2026-05-08 04:56 -34.68821 -58.67915 3030 ft 263 kts 316°
2026-05-08 04:56 -34.67342 -58.69230 3038 ft 263 kts 316°
2026-05-08 04:56 -34.65867 -58.70541 3027 ft 263 kts 316°
2026-05-08 04:56 -34.64283 -58.71697 3013 ft 275 kts 335°
2026-05-08 04:57 -34.62342 -58.71802 3028 ft 289 kts 10°
2026-05-08 04:57 -34.60575 -58.70631 3024 ft 295 kts 46°
2026-05-08 04:57 -34.59580 -58.68511 3028 ft 287 kts 82°
2026-05-08 04:57 -34.59659 -58.66189 3047 ft 271 kts 114°
2026-05-08 04:58 -34.60253 -58.64020 3031 ft 271 kts 116°
2026-05-08 04:58 -34.60866 -58.61849 3027 ft 272 kts 116°
2026-05-08 04:58 -34.61480 -58.59671 3019 ft 274 kts 116°
2026-05-08 04:58 -34.62092 -58.57471 3023 ft 275 kts 116°
2026-05-08 04:59 -34.62697 -58.55273 3018 ft 275 kts 116°
2026-05-08 04:59 -34.63301 -58.53061 3023 ft 275 kts 115°
2026-05-08 04:59 -34.63898 -58.50856 3030 ft 275 kts 115°
2026-05-08 04:59 -34.64516 -58.48557 3021 ft 274 kts 115°
2026-05-08 05:00 -34.65116 -58.46327 3035 ft 275 kts 114°
2026-05-08 05:00 -34.65711 -58.44111 3028 ft 275 kts 114°
2026-05-08 05:00 -34.66305 -58.41901 3022 ft 276 kts 114°
2026-05-08 05:00 -34.66899 -58.39681 3021 ft 276 kts 114°
2026-05-08 05:01 -34.67492 -58.37470 3039 ft 274 kts 113°
2026-05-08 05:01 -34.67737 -58.35195 3007 ft 273 kts 85°
2026-05-08 05:01 -34.67062 -58.33131 3018 ft 264 kts 54°
2026-05-08 05:01 -34.65728 -58.31711 2982 ft 250 kts 26°
2026-05-08 05:02 -34.64040 -58.31105 2275 ft 261 kts 356°
2026-05-08 05:02 -34.62323 -58.31565 1910 ft 247 kts 324°
2026-05-08 05:02 -34.60939 -58.32703 1608 ft 231 kts 311°
2026-05-08 05:02 -34.60061 -58.34169 1356 ft 202 kts 295°
2026-05-08 05:03 -34.59302 -58.35541 1077 ft 188 kts 298°
2026-05-08 05:03 -34.58593 -58.36788 832 ft 171 kts 296°
2026-05-08 05:03 -34.57953 -58.37933 656 ft 156 kts 299°
2026-05-08 05:03 -34.57365 -58.38984 404 ft 148 kts 299°
2026-05-08 05:04 -34.56791 -58.40018 205 ft 147 kts 299°
2026-05-08 05:04 -34.56224 -58.41036 33 ft 143 kts 298°
2026-05-08 05:04 -34.55651 -58.42086 414 ft 155 kts 299°
2026-05-08 05:04 -34.55049 -58.43210 991 ft 165 kts 296°
2026-05-08 05:05 -34.54350 -58.44397 1624 ft 189 kts 307°
2026-05-08 05:05 -34.53127 -58.45210 2197 ft 216 kts 338°
2026-05-08 05:05 -34.51546 -58.45147 2802 ft 241 kts 14°
2026-05-08 05:05 -34.50121 -58.43992 2972 ft 262 kts 53°
2026-05-08 05:06 -34.49439 -58.41880 3024 ft 280 kts 91°
2026-05-08 05:06 -34.49802 -58.39668 3010 ft 259 kts 123°
2026-05-08 05:06 -34.50645 -58.37816 2993 ft 244 kts 127°
2026-05-08 05:06 -34.51468 -58.36072 2980 ft 232 kts 127°
2026-05-08 05:07 -34.52161 -58.34351 2982 ft 224 kts 119°
2026-05-08 05:07 -34.52795 -58.32651 2990 ft 219 kts 128°
2026-05-08 05:07 -34.53570 -58.31039 3010 ft 224 kts 128°
2026-05-08 05:07 -34.54363 -58.29388 3012 ft 228 kts 128°
2026-05-08 05:08 -34.55152 -58.27746 3008 ft 228 kts 128°
2026-05-08 05:08 -34.55952 -58.26014 3023 ft 246 kts 124°
2026-05-08 05:08 -34.56723 -58.24086 3017 ft 261 kts 122°
2026-05-08 05:08 -34.57499 -58.22100 2989 ft 253 kts 123°
2026-05-08 05:09 -34.58476 -58.20500 2974 ft 226 kts 154°
2026-05-08 05:09 -34.59869 -58.19892 2999 ft 208 kts 181°
2026-05-08 05:09 -34.61254 -58.19984 3013 ft 192 kts 198°
2026-05-08 05:09 -34.62446 -58.20533 3010 ft 177 kts 214°
2026-05-08 05:10 -34.63420 -58.21450 3028 ft 178 kts 219°
2026-05-08 05:10 -34.64903 -58.23697 2995 ft 181 kts 265°
2026-05-08 05:10 -34.64564 -58.25229 2886 ft 194 kts 282°
2026-05-08 05:11 -34.64050 -58.26771 2654 ft 198 kts 289°
2026-05-08 05:11 -34.63364 -58.28201 2475 ft 195 kts 294°
2026-05-08 05:11 -34.62641 -58.29530 2220 ft 179 kts 295°
2026-05-08 05:11 -34.61973 -58.30728 1980 ft 164 kts 295°
2026-05-08 05:12 -34.61368 -58.31811 1818 ft 144 kts 294°
2026-05-08 05:12 -34.60828 -58.32778 1605 ft 132 kts 294°
2026-05-08 05:12 -34.60318 -58.33696 1443 ft 131 kts 295°
2026-05-08 05:12 -34.59797 -58.34634 1276 ft 137 kts 295°
2026-05-08 05:13 -34.59269 -58.35582 1082 ft 136 kts 296°
2026-05-08 05:13 -34.58732 -58.36543 895 ft 137 kts 295°
2026-05-08 05:13 -34.58189 -58.37520 725 ft 144 kts 299°
2026-05-08 05:13 -34.57620 -58.38538 505 ft 147 kts 300°
2026-05-08 05:14 -34.57048 -58.39563 298 ft 147 kts 301°
2026-05-08 05:14 -34.56477 -58.40580 61 ft 144 kts 300°
2026-05-08 05:14 -34.55964 -58.41513 23 ft 112 kts 306°
2026-05-08 05:14 -34.55643 -58.42084 28 ft 55 kts 304°
2026-05-08 05:15 -34.55481 -58.42376 30 ft 31 kts 304°
2026-05-08 05:15 -34.55405 -58.42500 29 ft 13 kts 331°
2026-05-08 05:15 -34.55363 -58.42428 24 ft 13 kts 95°
2026-05-08 05:15 -34.55395 -58.42333 24 ft 12 kts 130°
2026-05-08 05:16 -34.55447 -58.42253 27 ft 12 kts 128°
2026-05-08 05:16 -34.55497 -58.42173 26 ft 12 kts 126°
2026-05-08 05:16 -34.55568 -58.42057 25 ft 12 kts 127°
2026-05-08 05:16 -34.55617 -58.41969 24 ft 13 kts 124°
2026-05-08 05:17 -34.55665 -58.41884 25 ft 12 kts 124°
2026-05-08 05:17 -34.55712 -58.41800 28 ft 12 kts 123°
2026-05-08 05:17 -34.55753 -58.41714 25 ft 12 kts 117°
2026-05-08 05:17 -34.55788 -58.41628 24 ft 11 kts 116°
2026-05-08 05:18 -34.55823 -58.41544 26 ft 11 kts 117°
2026-05-08 05:18 -34.55857 -58.41463 27 ft 11 kts 117°
2026-05-08 05:18 -34.55891 -58.41384 24 ft 10 kts 117°
2026-05-08 05:18 -34.55927 -58.41311 24 ft 10 kts 143°
2026-05-08 05:19 -34.55988 -58.41338 24 ft 10 kts 213°
2026-05-08 05:19 -34.56045 -58.41384 24 ft 10 kts 213°
2026-05-08 05:19 -34.56100 -58.41428 24 ft 9 kts 214°
2026-05-08 05:19 -34.56153 -58.41472 28 ft 9 kts 214°
2026-05-08 05:20 -34.56200 -58.41466 26 ft 8 kts 125°
2026-05-08 05:20 -34.56231 -58.41411 27 ft 8 kts 124°
2026-05-08 05:20 -34.56262 -58.41357 25 ft 8 kts 124°
2026-05-08 05:20 -34.56280 -58.41318 25 ft 4 kts 99°
2026-05-08 05:21 -34.56261 -58.41294 27 ft 4 kts 26°
2026-05-08 05:21 -34.56253 -58.41289 26 ft 0 kts 214°